TimeCST,TemperatureF,Dew PointF,Humidity,Sea Level PressureIn,VisibilityMPH,Wind Direction,Wind SpeedMPH,Gust SpeedMPH,PrecipitationIn,Events,Conditions,WindDirDegrees,DateUTC
12:26 AM,39.2,35.6,87,30.27,10.0,NNE,23.0,27.6,N/A,,Overcast,20,2012-11-27 06:26:00
12:40 AM,39.2,35.6,87,30.28,10.0,North,18.4,-,N/A,,Overcast,10,2012-11-27 06:40:00
12:53 AM,39.0,35.1,86,30.30,10.0,North,17.3,25.3,N/A,,Overcast,10,2012-11-27 06:53:00
1:53 AM,37.0,33.1,86,30.30,9.0,North,16.1,-,0.00,Snow,Light Snow,10,2012-11-27 07:53:00
2:53 AM,37.0,30.9,79,30.31,9.0,NNE,15.0,-,0.00,Snow,Light Snow,20,2012-11-27 08:53:00
3:53 AM,34.0,30.0,85,30.31,9.0,North,17.3,-,0.00,Snow,Light Snow,10,2012-11-27 09:53:00
4:53 AM,33.1,28.9,85,30.32,9.0,North,16.1,-,0.00,Snow,Light Snow,10,2012-11-27 10:53:00
5:53 AM,32.0,28.0,85,30.34,8.0,North,16.1,-,0.00,Snow,Light Snow,10,2012-11-27 11:53:00
6:53 AM,30.9,27.0,85,30.36,9.0,North,15.0,-,0.00,Snow,Light Snow,10,2012-11-27 12:53:00
7:53 AM,30.9,27.0,85,30.39,9.0,NNE,15.0,-,0.00,Snow,Light Snow,20,2012-11-27 13:53:00
8:53 AM,34.0,28.9,82,30.41,9.0,NNE,17.3,-,0.00,Snow,Light Snow,20,2012-11-27 14:53:00
9:53 AM,37.0,30.0,76,30.42,9.0,NNE,17.3,-,0.00,Snow,Light Snow,20,2012-11-27 15:53:00
10:53 AM,39.9,30.9,70,30.41,10.0,NNE,12.7,18.4,0.00,,Clear,20,2012-11-27 16:53:00
11:53 AM,42.1,32.0,67,30.40,10.0,NNE,10.4,-,N/A,,Clear,20,2012-11-27 17:53:00
12:53 PM,44.1,32.0,63,30.39,10.0,North,12.7,-,N/A,,Clear,360,2012-11-27 18:53:00
1:53 PM,45.0,32.0,60,30.37,10.0,North,11.5,-,N/A,,Clear,10,2012-11-27 19:53:00
2:53 PM,44.1,32.0,63,30.35,10.0,North,11.5,-,N/A,,Clear,10,2012-11-27 20:53:00
3:53 PM,43.0,32.0,65,30.37,10.0,NNE,8.1,-,N/A,,Clear,20,2012-11-27 21:53:00
4:53 PM,37.0,30.0,76,30.37,10.0,NNE,5.8,-,N/A,,Clear,20,2012-11-27 22:53:00
5:53 PM,32.0,27.0,82,30.37,10.0,North,6.9,-,N/A,,Clear,360,2012-11-27 23:53:00
6:53 PM,30.0,27.0,88,30.38,10.0,North,5.8,-,N/A,,Clear,10,2012-11-28 00:53:00
7:53 PM,30.9,27.0,85,30.38,10.0,North,4.6,-,N/A,,Clear,10,2012-11-28 01:53:00
8:53 PM,30.9,26.1,82,30.38,10.0,Calm,Calm,-,N/A,,Clear,0,2012-11-28 02:53:00
9:53 PM,30.0,27.0,88,30.38,10.0,Calm,Calm,-,N/A,,Clear,0,2012-11-28 03:53:00
10:53 PM,30.9,27.0,85,30.39,10.0,Calm,Calm,-,N/A,,Clear,0,2012-11-28 04:53:00
11:53 PM,30.0,26.1,85,30.40,10.0,Calm,Calm,-,N/A,,Clear,0,2012-11-28 05:53:00